PA0HHN Weather Reports


time (UTC)temp
C
wind
direction
speed
KPH
gust
KPH
rain 1hr
cm
rain 24hr
cm
rain mn
cm
humidity
%
barometer
mb
20260506153001 12 257 0.0 0.0 0.00 0.00 0.00 77 1004.3
20260506151502 12 282 0.0 0.0 0.00 0.00 0.00 76 1004.1
20260506150002 11 21 1.6 0.0 0.00 0.00 0.00 76 1004.1
20260506144501 11 266 0.0 0.0 0.00 0.00 0.00 76 1003.7
20260506143000 12 248 3.2 0.0 0.00 0.00 0.00 73 1003.8
20260506141500 12 255 3.2 0.0 0.00 0.00 0.00 74 1003.9
20260506140001 12 41 4.8 0.0 0.00 0.00 0.00 74 1003.9
20260506134501 11 311 3.2 0.0 0.00 0.00 0.00 77 1003.9
20260506133000 12 317 1.6 0.0 0.00 0.00 0.00 77 1004.2
20260506121502 10 16 0.0 0.0 0.00 0.00 0.00 80 1003.9
20260506113000 10 146 1.6 0.0 0.00 0.00 0.00 78 1003.6
20260506111502 10 51 3.2 0.0 0.00 0.00 0.00 78 1003.5
20260506110002 10 4 1.6 0.0 0.00 0.00 0.00 78 1003.3
20260506104500 10 41 1.6 0.0 0.00 0.00 0.00 78 1003.6
20260506103001 10 1 3.2 0.0 0.00 0.00 0.00 77 1003.4
20260506101502 10 200 1.6 0.0 0.00 0.00 0.00 81 1003.3
20260506100000 10 260 0.0 0.0 0.00 0.00 0.00 82 1003.0
20260506094502 10 245 0.0 0.0 0.00 0.00 0.00 81 1003.0
20260506093000 10 242 0.0 0.0 0.00 0.00 0.00 82 1003.1
20260506091502 10 54 3.2 0.0 0.00 0.00 0.00 83 1003.0
20260506090002 10 22 0.0 0.0 0.00 0.00 0.00 83 1002.8
20260506084502 10 29 0.0 0.0 0.00 0.00 0.00 83 1002.9
20260506083001 10 284 1.6 0.0 0.00 0.00 0.00 83 1002.6
20260506081500 10 276 0.0 0.0 0.00 0.00 0.00 84 1002.7
20260506073000 10 240 0.0 0.0 0.00 0.00 0.00 85 1002.4
20260506071500 10 191 0.0 0.0 0.00 0.00 0.00 86 1002.3
20260506061500 8 257 0.0 0.0 0.00 0.00 0.00 90 1002.3
20260506044502 8 55 0.0 0.0 0.00 0.00 0.00 91 1001.9
20260506043002 8 244 0.0 0.0 0.00 0.00 0.00 91 1001.9
20260506041500 10 252 1.6 0.0 0.00 0.00 0.00 90 1002.0
20260506040002 10 116 1.6 0.0 0.00 0.00 0.00 89 1002.1
20260506034502 10 116 0.0 0.0 0.00 0.00 0.00 87 1001.8
20260506033001 10 244 0.0 0.0 0.00 0.00 0.00 88 1002.0
20260506031501 10 216 3.2 0.0 0.00 0.00 0.00 89 1002.0
20260506030002 10 247 0.0 0.0 0.00 0.00 0.00 89 1002.3
20260506024502 10 259 0.0 0.0 0.00 0.00 0.00 89 1002.3
20260506023002 10 247 0.0 0.0 0.00 0.00 0.00 89 1002.3
20260506021501 10 171 1.6 0.0 0.00 0.00 0.00 89 1002.6
20260506010000 10 219 1.6 0.0 0.00 0.00 0.00 87 1002.9
20260506004502 10 260 1.6 0.0 0.00 0.00 0.00 87 1003.2
20260506003002 10 244 0.0 0.0 0.00 0.00 0.00 87 1003.2
20260506001500 10 265 1.6 0.0 0.00 0.00 0.00 87 1003.3
20260506000000 10 266 0.0 0.0 0.00 0.00 0.00 87 1003.4
20260505234500 10 221 1.6 0.0 0.00 0.00 0.00 85 1003.5
20260505233002 10 266 0.0 0.0 0.00 0.00 0.00 84 1003.6
20260505231501 10 237 1.6 0.0 0.00 0.00 0.00 84 1003.7
20260505230000 10 264 0.0 0.0 0.00 0.00 0.00 83 1003.7
20260505224500 10 255 1.6 0.0 0.00 0.00 0.00 83 1003.8
20260505223002 10 232 1.6 0.0 0.00 0.00 0.00 84 1004.0
20260505221500 10 234 0.0 0.0 0.00 0.00 0.00 84 1004.0
20260505220000 10 207 1.6 0.0 0.00 0.00 0.00 84 1003.8
20260505214502 10 250 0.0 0.0 0.00 0.00 0.00 85 1003.9
20260505213001 10 244 1.6 0.0 0.00 0.00 0.00 84 1004.3
20260505211502 10 248 0.0 0.0 0.00 0.00 0.00 84 1004.4
20260505210002 10 216 1.6 0.0 0.00 0.00 0.00 85 1004.3
20260505204500 10 237 0.0 0.0 0.00 0.00 0.00 85 1004.4
20260505203002 10 235 0.0 0.0 0.00 0.00 0.00 85 1004.6
20260505201500 10 255 1.6 0.0 0.00 0.00 0.00 85 1004.6
20260505200000 10 192 1.6 0.0 0.00 0.00 0.00 85 1004.3
20260505194500 10 271 3.2 0.0 0.00 0.00 0.00 85 1004.6
20260505193000 10 56 0.0 0.0 0.00 0.00 0.00 85 1004.5
20260505191502 11 266 0.0 0.0 0.00 0.00 0.00 86 1004.2
20260505190003 11 12 3.2 0.0 0.00 0.00 0.00 86 1004.1
20260505181502 12 333 1.6 0.0 0.00 0.00 0.00 84 1004.0
20260505180000 12 232 3.2 0.0 0.00 0.00 0.00 83 1004.0
20260505173000 12 221 1.6 0.0 0.00 0.00 0.00 81 1004.0
20260505171500 12 225 1.6 0.0 0.00 0.00 0.00 79 1004.2
20260505170000 12 238 0.0 0.0 0.00 0.00 0.00 78 1004.0
20260505164501 12 226 0.0 0.0 0.00 0.00 0.00 79 1004.1
20260505163002 12 261 1.6 0.0 0.00 0.00 0.00 80 1004.1
20260505161502 12 250 1.6 0.0 0.00 0.00 0.00 79 1004.2